FLOCK 2K-37 (42867 NORAD) Tracking and Keplerian Element Data

This shows tracking and keplerian element data for the satellite.

Feedback or suggestion? Click here.




ElementValue
Catalog42867
NameFLOCK 2K-37
Epoch Orbit27436
Epoch Day151.02111814
Epoch Year2022
RAAN353.1325
Inclination96.7969
Eccentricity0.0009502
Argument of Perigee226.0489
Mean Anonmoly134.0005
Mean Motion15.95304555
Decay Rate0.0025286
L11 42867U 17042AU 22151.02111814 .00252860 26636-4 64479-3 0 9993
L22 42867 96.7969 353.1325 0009502 226.0489 134.0005 15.95304555274361



Live tracking and technical data element details for FLOCK 2K-37 (NORAD 42867). FLOCK 2K-37 can be tracked NOW for your location showing map with azimuth and elevation plus other details from your city location.







IsCatalogInMostPopularTable: catalog: 42867, numindb: 596
Update: records affected: 1



GetName: 42867 FLOCK 2K-37

Hit Count: updated at: Tue, 03 Dec 2024 01:49:37 GMT